Mount Airy, NC

2:32 PM EDT on September 18, 2019 (GMT -0400)
Mount Airy-Surry County

Weather History for KMWK - July, 2019

Change the Weather History Date:

Wednesday, July 17, 2019

  Actual Average (WUND) Record (WUND)
Temperature  
Mean Temperature 80 °F -  
Max Temperature 91 °F - - (-1)
Min Temperature 70 °F - - (-1)
Cooling Degree Days 16    
Growing Degree Days 30 (Base 50)    
Moisture  
Dew Point 72 °F    
Average Humidity 80    
Maximum Humidity 92    
Minimum Humidity 51    
Precipitation  
Precipitation 0.00 in - - ()
Sea Level Pressure  
Sea Level Pressure 30.09 in    
Wind  
Wind Speed 1 mph (WSW)    
Max Wind Speed 9 mph    
Max Gust Speed -    
Visibility 10 miles    
Events Rain    
Averages and records for this station are not official NWS values.
T = Trace of Precipitation, MM = Missing Value Source: NWS Daily Summary

Daily Weather History Graph

Daily Weather History Graph

Search for Another Location

Airport or City:

Astronomy

Jul. 17, 2019 Rise Set
Actual Time 6:17 AM EDT 8:39 PM EDT
Civil Twilight 5:47 AM EDT 9:08 PM EDT
Nautical Twilight 5:10 AM EDT 9:45 PM EDT
Astronomical Twilight 4:30 AM EDT 10:25 PM EDT
Moon 9:27 PM EDT (7/17) 6:48 AM EDT (7/17)
Length of Visible Light 15h 21m
Length of Day
14h 22m
Waxing Gibbous, 99% of the Moon is Illuminated
Jul 17
Waxing Gibbous
Jul 24
Last Quarter
Jul 31
New
Aug 7
First Quarter
Aug 15
Full

Hourly Weather History & Observations

Time (EDT) Temp. Heat Index Dew Point Humidity Pressure Visibility Wind Dir Wind Speed Gust Speed Precip Events Conditions
12:00 AM 77.4 °F - 73.8 °F 89% 30.14 in 10.0 mi Calm Calm - N/A   Clear
12:20 AM 77.4 °F - 74.1 °F 90% 30.14 in 10.0 mi Calm Calm - N/A   Clear
12:40 AM 76.8 °F - 73.9 °F 91% 30.14 in 10.0 mi Calm Calm - N/A   Clear
1:00 AM 76.1 °F - 72.9 °F 90% 30.14 in 10.0 mi Calm Calm - N/A   Clear
1:20 AM 75.0 °F - 72.3 °F 91% 30.14 in 10.0 mi Calm Calm - N/A   Clear
1:40 AM 75.7 °F - 72.9 °F 91% 30.14 in 10.0 mi Calm Calm - N/A   Clear
2:00 AM 75.4 °F - 72.7 °F 91% 30.13 in 10.0 mi Calm Calm - N/A   Clear
2:20 AM 74.3 °F - 71.6 °F 91% 30.12 in 7.0 mi Calm Calm - N/A   Clear
2:40 AM 73.9 °F - 71.2 °F 91% 30.11 in 10.0 mi Calm Calm - N/A   Clear
3:00 AM 73.0 °F - 70.3 °F 91% 30.11 in 10.0 mi Calm Calm - N/A   Clear
3:20 AM 73.6 °F - 70.9 °F 91% 30.10 in 7.0 mi Calm Calm - N/A   Clear
3:40 AM 73.2 °F - 70.7 °F 92% 30.09 in 10.0 mi Calm Calm - N/A   Scattered Clouds
4:00 AM 73.4 °F - 70.7 °F 91% 30.09 in 10.0 mi Calm Calm - N/A   Clear
4:20 AM 73.0 °F - 70.7 °F 92% 30.09 in 10.0 mi Calm Calm - N/A   Clear
4:40 AM 72.7 °F - 70.2 °F 92% 30.09 in 7.0 mi Calm Calm - N/A   Clear
5:00 AM 72.5 °F - 69.8 °F 91% 30.09 in 7.0 mi Calm Calm - N/A   Clear
5:20 AM 71.2 °F - 68.9 °F 92% 30.10 in 10.0 mi Calm Calm - N/A   Scattered Clouds
5:40 AM 72.5 °F - 69.8 °F 91% 30.10 in 10.0 mi Calm Calm - N/A   Clear
6:00 AM 71.4 °F - 68.7 °F 91% 30.10 in 10.0 mi Calm Calm - N/A   Clear
6:20 AM 72.1 °F - 69.8 °F 92% 30.11 in 10.0 mi Calm Calm - N/A   Clear
6:40 AM 70.9 °F - 68.5 °F 92% 30.11 in 10.0 mi Calm Calm - N/A   Clear
7:00 AM 71.6 °F - 69.1 °F 92% 30.11 in 10.0 mi Calm Calm - N/A   Clear
7:20 AM 72.9 °F - 70.3 °F 92% 30.11 in 10.0 mi Calm Calm - N/A   Clear
7:40 AM 74.3 °F - 71.8 °F 92% 30.11 in 10.0 mi Calm Calm - N/A   Clear
8:00 AM 75.9 °F - 72.7 °F 90% 30.12 in 10.0 mi Calm Calm - N/A   Clear
8:20 AM 76.1 °F - 72.7 °F 89% 30.11 in 10.0 mi Calm Calm - N/A   Clear
8:40 AM 77.4 °F - 73.6 °F 88% 30.12 in 10.0 mi Calm Calm - N/A   Clear
9:00 AM 78.8 °F - 73.9 °F 85% 30.12 in 10.0 mi Calm Calm - N/A   Clear
9:20 AM 79.9 °F - 74.5 °F 83% 30.12 in 10.0 mi Calm Calm - N/A   Clear
9:40 AM 80.6 °F 85.9 °F 74.7 °F 82% 30.13 in 10.0 mi Calm Calm - N/A   Clear
10:00 AM 81.5 °F 87.8 °F 75.2 °F 81% 30.12 in 10.0 mi WSW 3.5 mph - N/A   Clear
10:20 AM 82.9 °F 89.7 °F 74.5 °F 75% 30.12 in 10.0 mi SSW 4.6 mph - N/A   Clear
10:40 AM 84.4 °F 92.4 °F 75.0 °F 73% 30.11 in 10.0 mi WSW 3.5 mph - N/A   Clear
11:00 AM 85.3 °F 92.6 °F 73.8 °F 68% 30.12 in 10.0 mi WSW 4.6 mph - N/A   Clear
11:20 AM 86.0 °F 93.8 °F 73.8 °F 67% 30.12 in 10.0 mi SSW 5.8 mph - N/A   Clear
11:40 AM 86.2 °F 93.8 °F 73.6 °F 66% 30.12 in 10.0 mi South 3.5 mph - N/A   Clear
12:00 PM 87.8 °F 95.6 °F 73.2 °F 62% 30.12 in 10.0 mi South 6.9 mph - N/A   Clear
12:20 PM 88.2 °F 95.5 °F 72.5 °F 60% 30.11 in 10.0 mi WSW 4.6 mph - N/A   Clear
12:40 PM 88.5 °F 94.4 °F 70.9 °F 56% 30.11 in 10.0 mi SSW 8.1 mph - N/A   Clear
1:00 PM 89.8 °F 97.5 °F 72.7 °F 57% 30.10 in 10.0 mi WSW 5.8 mph - N/A   Clear
1:20 PM 88.9 °F 96.6 °F 72.7 °F 59% 30.10 in 10.0 mi WSW 5.8 mph - N/A   Scattered Clouds
1:40 PM 89.6 °F 96.6 °F 72.1 °F 56% 30.09 in 10.0 mi WSW 6.9 mph - N/A   Clear
2:00 PM 90.1 °F 96.8 °F 71.4 °F 54% 30.09 in 10.0 mi SW 8.1 mph - N/A   Clear
2:20 PM 89.8 °F 96.5 °F 71.4 °F 55% 30.08 in 10.0 mi SSW 9.2 mph - N/A   Clear
2:40 PM 91.2 °F 97.5 °F 70.9 °F 51% 30.07 in 10.0 mi SW 9.2 mph - N/A   Clear
3:00 PM 90.5 °F 96.5 °F 70.9 °F 52% 30.06 in 10.0 mi WSW 6.9 mph - N/A   Clear
3:20 PM 89.4 °F 96.3 °F 71.6 °F 56% 30.05 in 10.0 mi West 3.5 mph - N/A   Clear
3:40 PM 91.2 °F 98.0 °F 71.2 °F 52% 30.05 in 10.0 mi WSW 6.9 mph - N/A   Clear
4:00 PM 87.8 °F 93.0 °F 70.2 °F 56% 30.05 in 10.0 mi West 6.9 mph - N/A   Scattered Clouds
4:20 PM 82.4 °F 87.4 °F 72.0 °F 71% 30.06 in 10.0 mi NW 6.9 mph - N/A Rain Light Rain
4:40 PM 80.8 °F 85.2 °F 72.5 °F 76% 30.07 in 10.0 mi Calm Calm - N/A   Scattered Clouds
5:00 PM 82.8 °F 88.2 °F 72.7 °F 71% 30.05 in 10.0 mi Calm Calm - N/A   Clear
5:20 PM 81.9 °F 87.3 °F 73.2 °F 75% 30.04 in 10.0 mi North 3.5 mph - N/A   Clear
5:40 PM 79.3 °F - 73.6 °F 82% 30.05 in 4.0 mi SSW 3.5 mph - N/A Rain Light Rain
6:00 PM 78.8 °F - 74.1 °F 85% 30.05 in 10.0 mi Calm Calm - N/A Rain Light Rain
6:20 PM 79.2 °F - 75.2 °F 88% 30.04 in 10.0 mi Calm Calm - N/A   Clear
6:40 PM 80.4 °F 86.0 °F 75.4 °F 85% 30.03 in 10.0 mi Calm Calm - N/A   Clear
7:00 PM 81.5 °F 86.9 °F 73.8 °F 77% 30.02 in 10.0 mi West 3.5 mph - N/A   Clear
7:20 PM 80.4 °F 84.5 °F 72.1 °F 76% 30.02 in 10.0 mi SW 4.6 mph - N/A   Clear
7:40 PM 80.2 °F 84.5 °F 72.7 °F 78% 30.02 in 10.0 mi WSW 3.5 mph - N/A   Clear
8:00 PM 79.5 °F - 72.5 °F 79% 30.02 in 10.0 mi Calm Calm - N/A   Clear
8:20 PM 78.4 °F - 72.1 °F 81% 30.03 in 10.0 mi Calm Calm - N/A   Clear
8:40 PM 77.9 °F - 72.0 °F 82% 30.03 in 10.0 mi Calm Calm - N/A   Clear
9:00 PM 77.4 °F - 72.3 °F 84% 30.04 in 10.0 mi Calm Calm - N/A   Clear
9:20 PM 76.5 °F - 72.0 °F 86% 30.04 in 10.0 mi Calm Calm - N/A   Clear
9:40 PM 76.1 °F - 72.1 °F 87% 30.05 in 10.0 mi Calm Calm - N/A   Clear
10:00 PM 76.1 °F - 72.1 °F 87% 30.05 in 10.0 mi Calm Calm - N/A   Scattered Clouds
10:20 PM 75.6 °F - 72.0 °F 89% 30.05 in 10.0 mi Calm Calm - N/A   Scattered Clouds
10:40 PM 76.3 °F - 72.0 °F 86% 30.05 in 10.0 mi Calm Calm - N/A   Scattered Clouds
11:00 PM 76.3 °F - 71.8 °F 86% 30.05 in 10.0 mi Calm Calm - N/A   Scattered Clouds
11:20 PM 77.2 °F - 72.5 °F 85% 30.05 in 10.0 mi Calm Calm - N/A   Scattered Clouds
11:40 PM 77.4 °F - 72.5 °F 85% 30.04 in 10.0 mi Calm Calm - N/A   Mostly Cloudy